Back to catalog

LUCH 1

AliveCommunicationsGEO
NORAD 23680·PAYLOAD·🇷🇺 Russia

Launched Oct 11, 1995 from Baikonur Cosmodrome

Loading…

TLE

FreshSource: Space-Track

Epoch: Sep 13, 2026, 18:14 UTC

1 23680U 95054A   26256.76031815 -.00000096  00000-0  00000-0 0  9990
2 23680  15.0472 358.5263 0006785 158.8251 181.8096  1.00271089113239

Track LUCH 1 in real time with AllMySat

Download on the App Store